Manchester, NH

1:16 PM EDT on April 26, 2017 (GMT -0400)
Manchester

Weather History for KMHT - October, 2012

Change the Weather History Date:

Friday, October 12, 2012

  Actual Average Record
Temperature  
Mean Temperature 46 °F 52 °F  
Max Temperature 54 °F 62 °F 85 °F (1954)
Min Temperature 37 °F 42 °F 20 °F (1956)
Degree Days  
Heating Degree Days 19 13  
Month to date heating degree days 136  
Since 1 July heating degree days 279  
Cooling Degree Days 0 0  
Month to date cooling degree days 0  
Year to date cooling degree days 638  
Moisture  
Dew Point 30 °F    
Average Humidity 59    
Maximum Humidity 79    
Minimum Humidity 31    
Precipitation  
Precipitation 0.01 in 0.14 in 2.45 in (1975)
Month to date precipitation 1.62  
Year to date precipitation 34.69  
Snow  
Snow 0.00 in - - ()
Month to date snowfall  
Since 1 July snowfall  
Snow Depth -    
Sea Level Pressure  
Sea Level Pressure 30.14 in    
Wind  
Wind Speed 7 mph (WNW)    
Max Wind Speed 18 mph    
Max Gust Speed 25 mph    
Visibility 10 miles    
Events Rain    
T = Trace of Precipitation, MM = Missing Value Source: NWS Daily Summary

Daily Weather History Graph

Daily Weather History Graph

Search for Another Location

Airport or City:

Trip Planner

Search our weather history database for the weather conditions in past years. The results will help you decide how hot, cold, wet, or windy it might be!

Date:

Astronomy

Oct. 12, 2012 Rise Set
Actual Time 6:56 AM EDT 6:07 PM EDT
Civil Twilight 6:27 AM EDT 6:35 PM EDT
Nautical Twilight 5:54 AM EDT 7:08 PM EDT
Astronomical Twilight 5:21 AM EDT 7:41 PM EDT
Moon 3:31 AM EDT (10/12) 4:18 PM EDT (10/12)
Length of Visible Light 12h 08m
Length of Day
11h 11m
Waning Crescent, 11% of the Moon is Illuminated
Oct 12
Waning Crescent
Oct 15
New
Oct 21
First Quarter
Oct 29
Full
Nov 6
Last Quarter

Hourly Weather History & Observations

Time (EDT) Temp. Windchill Dew Point Humidity Pressure Visibility Wind Dir Wind Speed Gust Speed Precip Events Conditions
12:53 AM 43.0 °F 41.3 °F 35.1 °F 74% 30.10 in 10.0 mi South 3.5 mph - N/A   Clear
1:53 AM 42.1 °F - 36.0 °F 79% 30.09 in 10.0 mi Calm Calm - N/A   Clear
2:53 AM 43.0 °F 41.3 °F 36.0 °F 76% 30.06 in 10.0 mi South 3.5 mph - N/A   Clear
3:53 AM 42.8 °F 40.1 °F 35.6 °F 76% 29.99 in 10.0 mi South 4.6 mph - N/A   Clear
4:53 AM 43.0 °F 40.3 °F 35.1 °F 74% 30.02 in 10.0 mi South 4.6 mph - N/A   Clear
5:53 AM 43.0 °F 38.8 °F 35.1 °F 74% 30.01 in 10.0 mi South 6.9 mph - N/A   Clear
6:53 AM 42.1 °F 39.2 °F 35.1 °F 76% 30.01 in 10.0 mi Variable 4.6 mph - N/A   Clear
7:53 AM 44.1 °F 42.5 °F 36.0 °F 73% 30.04 in 10.0 mi SW 3.5 mph - N/A   Scattered Clouds
8:53 AM 46.0 °F 43.9 °F 36.0 °F 68% 30.06 in 10.0 mi SSW 4.6 mph - N/A   Overcast
9:53 AM 46.0 °F 41.0 °F 39.9 °F 79% 30.10 in 7.0 mi NNW 10.4 mph - 0.01 in Rain Light Rain
10:43 AM 44.6 °F 43.1 °F 37.4 °F 76% 30.06 in 10.0 mi WNW 3.5 mph - 0.00 in   Overcast
10:53 AM 45.0 °F 43.5 °F 37.9 °F 76% 30.11 in 10.0 mi West 3.5 mph - 0.00 in   Overcast
11:53 AM 46.9 °F - 37.0 °F 68% 30.11 in 10.0 mi WNW 8.1 mph - N/A   Overcast
12:53 PM 48.2 °F - 30.2 °F 50% 30.06 in 10.0 mi NW 8.1 mph 16.1 mph N/A   Mostly Cloudy
1:53 PM 52.0 °F - 27.0 °F 38% 30.11 in 10.0 mi NW 16.1 mph 21.9 mph N/A   Scattered Clouds
2:53 PM 53.1 °F - 23.0 °F 31% 30.13 in 10.0 mi NNW 18.4 mph 25.3 mph N/A   Scattered Clouds
3:53 PM 50.0 °F - 23.0 °F 35% 30.16 in 10.0 mi NW 10.4 mph 19.6 mph N/A   Scattered Clouds
4:53 PM 50.0 °F - 23.0 °F 35% 30.18 in 10.0 mi NW 13.8 mph 23.0 mph N/A   Scattered Clouds
5:53 PM 48.0 °F - 21.0 °F 34% 30.21 in 10.0 mi NW 13.8 mph 20.7 mph N/A   Partly Cloudy
6:53 PM 45.0 °F 38.2 °F 21.9 °F 40% 30.26 in 10.0 mi NW 15.0 mph 19.6 mph N/A   Scattered Clouds
7:53 PM 43.0 °F 35.1 °F 21.9 °F 43% 30.30 in 10.0 mi NNW 17.3 mph 23.0 mph N/A   Partly Cloudy
8:53 PM 41.0 °F 33.9 °F 19.9 °F 43% 30.35 in 10.0 mi NW 12.7 mph 19.6 mph N/A   Clear
9:53 PM 39.2 °F 33.0 °F 21.2 °F 49% 30.32 in 10.0 mi NW 9.2 mph - N/A   Clear
10:53 PM 39.0 °F 32.3 °F 21.9 °F 50% 30.39 in 10.0 mi NW 10.4 mph - N/A   Clear
11:53 PM 37.0 °F 31.6 °F 23.0 °F 57% 30.39 in 10.0 mi NNW 6.9 mph - N/A   Clear